sat.trackr.live / text

‹ back to catalog

STARLINK-34019

NORAD 64032 · 2025-102L

PAYLOAD ACTIVE UNKNOWN

§ Identity

Operator
Country
US
Launch date
2025-05-16
Launch site
AFWTR
Launch vehicle
Mass (kg)
RCS (m²)

Purposes: comms

External: N2YO · Heavens-Above · Gunter

§ Orbital elements

Epoch: 2026-05-25T02:50:51.488736Z

Period
96.11 min
Inclination
70.0003°
Eccentricity
0.0002869
Mean motion
14.98335196 rev/d
Perigee alt
570.0 km
Apogee alt
574.0 km
Semi-major
6,950.2 km
B*
2.3652e-4
RAAN
281.6184°
Arg perigee
266.0797°
Mean anomaly
94.0034°
Rev number
5,741

§ Raw data

STARLINK-340191 64032U 25102L   26145.11865149  .00002731  00000+0  23652-3 0  99912 64032  70.0003 281.6184 0002869 266.0797  94.0034 14.98335196 57415

JSON: /api/v1/satellites/64032 · /tle

For live sub-satellite position, see the globe view (requires WebGL).

§ Visibility from observer

Set your observer location to see the next 7 days of passes ≥ 10°. The values pass through the URL so the page stays shareable.

No JS? Fill the form by hand. The geolocation button needs JavaScript.